Wind_Speed
3 2 2 2 2 2 2 3 4 4 4 4 4 4 3 3 3 3 3 2 2 2 3 4 4 4 4 4 4 4 4 3 4 4 4 4 4 5 5 6 6 7 8
4 4 3 3 3 3 3 4 5 5 5 5 5 5 4 4 4 3 3 3 2 2 2 2 3 3 3 3 3 3 2 2 2 3 3 3 3 4 4 5 5 6 7
6 6 5 5 5 5 5 5 6 6 6 6 6 6 6 5 5 5 5 5 4 3 3 3 3 3 3 3 2 2 2 1 1 1 1 2 2 3 3 4 5 6 6
7 6 6 6 6 6 6 7 7 7 7 7 7 7 7 7 6 6 6 6 6 5 5 4 4 4 4 4 4 3 3 2 1 1 1 0 1 1 2 3 4 5 5
7 7 7 7 7 7 7 8 8 8 9 9 8 8 8 8 8 8 7 7 7 7 7 6 6 6 6 6 6 5 5 4 3 3 2 2 1 1 1 2 3 4 4
7 8 8 7 7 7 8 9 9 10 10 10 10 9 9 10 10 9 9 9 9 9 9 8 8 8 8 8 8 7 7 6 5 4 4 4 3 2 2 2 3 3 3
7 8 8 7 7 8 9 10 10 11 11 12 11 11 11 11 12 12 11 11 11 11 11 10 10 9 9 9 9 9 9 8 7 6 6 5 5 4 4 3 3 4 4
9 9 9 8 9 9 10 11 12 12 13 13 13 13 13 13 14 14 13 13 13 13 13 12 11 10 10 10 10 10 10 9 9 8 8 8 7 6 6 5 5 4 4
11 10 11 11 11 11 12 13 14 14 15 15 15 15 15 15 15 15 15 15 15 15 15 14 13 12 12 12 11 12 12 12 11 10 9 10 9 9 8 8 7 7 6
12 12 12 13 13 13 14 15 16 16 16 16 17 17 18 18 17 17 17 16 16 16 16 15 15 14 14 14 13 13 13 13 13 13 12 12 11 11 11 10 10 9 8
13 13 13 14 15 15 15 16 17 17 18 19 19 20 20 20 20 20 20 19 18 18 17 17 16 15 14 15 15 15 15 15 15 15 14 14 14 13 13 13 12 12 11
14 14 14 14 16 17 17 18 19 20 20 21 21 21 21 22 23 23 22 22 21 20 20 19 18 17 17 17 16 16 17 17 18 17 16 16 16 16 16 15 15 14 14
15 15 14 15 17 18 19 19 20 20 22 22 22 23 23 23 23 24 24 24 23 22 22 21 21 20 19 18 17 17 17 18 19 19 19 19 19 19 18 18 18 17 17
15 14 15 16 17 18 19 21 21 21 22 21 21 21 22 22 22 23 22 20 20 21 21 21 21 21 21 20 18 18 18 18 19 19 19 21 21 22 21 20 20 20 19
16 16 16 17 18 18 20 21 21 20 21 23 23 22 22 23 23 24 22 20 18 19 20 20 21 20 20 19 19 20 20 20 19 20 20 21 23 24 24 22 22 22 22
16 16 17 17 17 19 19 19 18 18 20 20 20 20 21 21 22 23 22 21 20 20 20 20 21 20 19 19 20 20 20 21 21 21 21 21 22 23 24 25 24 24 25
17 16 16 16 17 18 17 16 17 18 19 19 19 20 20 19 19 19 20 21 20 20 20 21 21 21 21 21 21 21 21 21 22 23 23 21 22 23 25 25 26 26 27
16 16 15 15 15 15 15 15 15 16 16 16 17 18 18 17 16 17 18 20 20 20 20 21 21 22 23 23 23 23 23 23 23 24 24 23 23 23 25 27 27 27 28
14 14 14 13 13 14 14 14 14 15 16 16 15 15 16 16 17 18 19 20 22 22 22 23 23 24 24 25 25 25 25 25 24 25 25 25 25 25 25 27 28 29 29
13 12 12 13 14 14 14 14 14 14 14 15 16 16 16 17 19 20 21 22 23 23 24 24 25 25 26 27 27 27 27 27 26 26 27 27 27 27 26 27 28 29 30
11 12 13 14 15 14 13 13 14 13 14 16 16 17 18 19 21 21 22 22 23 24 24 25 26 27 28 28 29 29 29 29 29 28 28 28 28 28 28 28 29 29 31
10 11 12 13 12 13 14 14 14 15 16 17 18 19 20 21 22 22 23 24 25 25 26 27 28 28 29 29 29 30 30 30 31 30 30 29 29 30 29 29 29 29 30
8 9 9 10 11 12 13 14 15 17 18 19 19 20 21 22 22 23 24 25 26 26 26 27 28 29 30 30 31 31 31 31 31 31 31 31 31 31 31 30 30 31 31
7 8 9 10 12 13 14 15 17 18 19 20 21 21 22 22 23 23 24 25 26 26 27 27 28 29 29 30 31 31 31 31 32 32 33 33 32 33 33 32 32 32 32
7 8 10 12 13 14 15 17 18 20 20 21 21 21 22 23 23 24 24 25 26 27 27 28 28 29 29 29 30 31 31 32 33 33 34 35 34 34 34 34 34 33 33
8 9 11 13 14 16 17 18 19 20 21 21 22 22 23 24 24 24 25 26 27 27 28 28 29 29 29 29 30 30 31 32 32 33 33 34 35 35 36 36 35 35 35
Wind_Direction
300 300 286 291 303 309 305 304 308 313 316 315 316 318 318 320 325 338 353 10 28 43 53 57 57 55 55 55 56 60 64 69 75 81 82 84 84 86 90 97 104 113 117
296 297 290 280 283 289 293 296 298 302 301 303 307 306 307 307 310 314 319 325 333 344 1 19 28 30 29 32 37 41 46 58 69 75 76 81 86 88 92 93 106 119 121
290 295 291 284 279 281 287 291 295 299 299 299 301 301 301 303 303 305 308 309 310 311 317 328 340 346 346 346 349 355 360 5 28 65 71 74 86 93 97 97 108 119 126
283 286 288 287 286 285 287 288 294 297 296 296 298 298 297 295 296 299 303 303 302 300 301 303 305 311 314 313 311 308 310 309 296 280 250 251 105 112 113 112 120 124 133
283 281 287 291 292 293 291 291 291 294 296 294 292 292 294 292 292 292 294 297 297 296 296 296 295 293 295 296 295 293 291 291 286 277 268 257 255 210 159 140 143 140 141
284 281 287 292 294 295 294 293 293 291 292 293 291 290 291 292 292 291 290 290 290 292 292 293 292 290 289 288 286 284 282 280 279 276 267 259 254 242 220 190 171 165 160
286 282 285 292 295 297 296 297 297 294 292 292 291 287 288 289 290 291 290 287 285 287 289 290 289 286 285 284 283 282 280 277 274 269 263 260 253 245 236 223 203 192 185
290 288 289 293 294 297 298 300 299 296 294 292 290 287 287 286 287 288 288 285 284 283 284 285 284 282 281 281 278 277 276 272 270 268 262 258 256 249 243 236 225 214 205
291 288 293 294 293 294 295 296 295 294 293 290 287 285 285 284 284 284 283 282 281 279 280 281 281 281 278 277 276 273 271 270 267 267 266 259 255 253 249 244 238 228 221
290 291 293 294 291 289 290 291 291 290 290 288 286 282 280 280 279 278 278 278 277 276 276 276 277 276 275 273 273 271 269 268 265 262 262 261 257 254 252 249 244 237 232
285 289 294 296 294 290 289 288 286 286 285 285 285 282 279 276 274 274 273 272 272 273 274 274 275 273 272 271 269 268 269 266 264 261 257 258 257 255 254 251 248 243 238
284 287 293 293 293 292 288 287 285 283 282 281 279 279 277 275 273 271 271 270 269 269 270 271 271 270 269 268 269 268 269 266 262 262 259 257 256 254 252 250 249 247 241
283 287 294 292 291 291 286 285 285 284 286 284 281 277 277 279 278 273 272 272 269 266 267 269 268 267 267 265 267 267 266 266 265 261 259 260 256 254 252 248 246 245 244
285 288 294 296 294 291 285 285 284 286 287 287 284 282 282 283 280 277 276 279 274 270 269 272 271 269 267 267 267 267 266 266 265 264 263 263 258 253 250 249 245 243 243
283 285 292 297 296 294 290 289 288 289 289 288 285 286 285 283 281 278 276 278 278 279 279 277 272 271 271 272 273 273 271 269 268 267 268 263 258 253 248 248 245 242 241
283 283 288 294 294 293 291 292 291 291 290 288 289 291 289 287 282 277 275 277 279 281 279 278 276 274 276 277 273 270 268 268 269 267 270 264 257 253 248 246 245 244 242
282 288 290 292 294 294 294 295 293 293 291 291 293 292 290 290 286 279 279 278 277 280 279 278 276 276 277 276 273 269 267 268 267 266 267 264 258 254 250 247 246 245 244
279 285 291 294 298 300 300 302 297 298 298 299 298 295 291 292 288 284 281 280 280 281 281 280 279 277 275 274 273 269 267 267 266 263 263 263 259 256 253 250 248 246 246
281 287 289 294 298 300 305 305 303 301 300 301 298 296 295 294 293 291 288 285 283 283 283 282 281 279 277 275 273 271 270 268 266 264 262 262 260 257 254 251 249 247 247
289 292 295 300 299 303 306 306 304 304 302 303 300 300 301 299 297 294 291 289 286 284 284 283 282 280 278 276 275 274 271 269 267 265 262 260 260 259 257 253 251 250 248
292 294 295 299 302 305 307 309 308 309 308 308 306 304 303 301 298 297 295 291 288 287 287 285 283 281 278 276 275 273 272 270 267 265 263 260 259 258 257 255 251 250 249
296 297 298 299 306 308 308 311 311 312 313 313 314 312 307 304 302 300 297 294 292 291 290 288 286 283 281 278 276 273 271 269 267 265 263 260 258 257 256 255 252 250 249
311 310 312 310 313 314 316 317 317 318 317 316 315 314 312 310 306 304 301 297 294 292 290 288 286 284 282 280 278 275 271 269 266 264 262 259 257 256 255 255 252 250 248
314 317 318 319 321 322 323 322 320 320 318 317 316 316 314 312 309 307 304 301 298 295 293 290 288 285 283 281 279 277 274 270 267 265 263 259 257 256 256 255 252 251 249
324 328 327 326 324 324 325 324 322 321 320 319 318 318 316 314 312 310 307 304 301 299 296 293 290 287 285 282 280 278 276 273 270 267 265 263 259 256 255 254 253 252 251
326 327 327 327 326 327 326 325 324 323 323 322 321 320 318 316 314 312 310 307 304 301 299 297 294 291 289 286 282 279 277 275 272 269 266 264 261 258 255 254 253 251 250
Height
5907 5907 5908 5908 5908 5908 5908 5908 5908 5908 5908 5907 5907 5906 5906 5906 5905 5905 5904 5904 5904 5903 5903 5903 5902 5902 5902 5901 5901 5901 5901 5901 5901 5901 5901 5901 5902 5902 5903 5903 5904 5904 5905
5907 5907 5907 5907 5907 5907 5908 5908 5908 5908 5908 5907 5907 5906 5906 5906 5905 5905 5905 5904 5904 5904 5904 5903 5903 5903 5902 5902 5902 5902 5902 5902 5902 5902 5902 5902 5903 5903 5904 5904 5905 5905 5906
5906 5906 5906 5906 5906 5907 5907 5907 5907 5907 5907 5907 5907 5906 5906 5906 5906 5905 5905 5905 5904 5904 5904 5904 5903 5903 5903 5903 5902 5902 5902 5902 5903 5903 5903 5903 5904 5904 5904 5905 5906 5906 5907
5905 5905 5905 5905 5905 5906 5906 5906 5906 5906 5906 5906 5906 5906 5905 5905 5905 5905 5905 5905 5904 5904 5904 5904 5904 5903 5903 5903 5903 5902 5903 5903 5903 5903 5903 5904 5904 5905 5905 5906 5906 5907 5908
5904 5904 5904 5904 5904 5904 5904 5905 5905 5905 5905 5905 5905 5905 5905 5904 5904 5904 5904 5904 5904 5904 5903 5903 5903 5903 5903 5903 5902 5902 5902 5903 5903 5903 5904 5904 5905 5905 5906 5906 5907 5908 5909
5903 5902 5902 5903 5903 5903 5903 5903 5904 5904 5904 5904 5904 5903 5903 5903 5903 5903 5903 5903 5903 5902 5902 5902 5902 5902 5902 5902 5902 5902 5902 5902 5903 5903 5903 5904 5905 5905 5906 5907 5907 5908 5909
5901 5901 5901 5901 5901 5902 5902 5902 5902 5902 5902 5902 5902 5902 5902 5902 5902 5902 5902 5901 5901 5901 5901 5901 5901 5901 5901 5901 5901 5901 5901 5901 5902 5902 5903 5904 5904 5905 5906 5907 5908 5908 5909
5899 5900 5899 5899 5899 5900 5900 5900 5900 5900 5900 5900 5900 5900 5900 5900 5900 5900 5900 5900 5899 5899 5899 5899 5899 5899 5899 5899 5899 5899 5900 5900 5901 5902 5902 5903 5904 5905 5906 5907 5907 5908 5909
5897 5898 5898 5898 5898 5898 5898 5898 5898 5898 5898 5898 5898 5898 5898 5898 5898 5897 5897 5897 5897 5897 5897 5897 5897 5897 5897 5897 5897 5897 5898 5898 5899 5900 5901 5901 5903 5904 5905 5906 5907 5908 5909
5895 5895 5896 5896 5896 5896 5896 5896 5896 5895 5895 5895 5895 5895 5895 5895 5895 5895 5895 5895 5895 5895 5895 5894 5894 5894 5894 5895 5895 5895 5895 5896 5897 5898 5899 5900 5901 5902 5904 5905 5906 5907 5909
5892 5893 5893 5893 5893 5893 5893 5892 5892 5892 5892 5892 5892 5891 5891 5891 5891 5891 5891 5891 5892 5892 5892 5892 5892 5892 5892 5892 5892 5892 5893 5893 5894 5895 5896 5898 5899 5900 5902 5903 5905 5906 5908
5889 5889 5890 5890 5890 5890 5889 5889 5889 5889 5889 5888 5888 5887 5887 5887 5887 5887 5887 5888 5888 5888 5888 5888 5888 5888 5888 5889 5889 5889 5889 5890 5890 5892 5893 5894 5896 5898 5899 5901 5902 5904 5906
5886 5887 5887 5887 5886 5886 5885 5885 5885 5885 5884 5883 5883 5882 5882 5882 5882 5883 5883 5883 5883 5883 5884 5884 5884 5884 5885 5885 5885 5885 5885 5886 5886 5888 5889 5890 5892 5894 5896 5898 5899 5901 5903
5883 5883 5882 5883 5883 5882 5880 5881 5881 5880 5880 5879 5879 5878 5878 5878 5878 5879 5879 5878 5878 5878 5879 5880 5880 5880 5881 5881 5880 5881 5881 5882 5882 5884 5885 5886 5888 5890 5892 5894 5895 5898 5900
5880 5880 5879 5880 5879 5878 5877 5877 5876 5876 5876 5875 5875 5874 5874 5874 5873 5874 5874 5874 5874 5875 5875 5875 5876 5876 5876 5877 5877 5878 5878 5877 5879 5880 5880 5882 5883 5885 5887 5889 5891 5893 5896
5876 5876 5877 5877 5876 5874 5873 5873 5872 5871 5871 5871 5871 5870 5870 5869 5869 5869 5870 5871 5871 5871 5871 5871 5871 5871 5872 5873 5873 5874 5874 5874 5875 5876 5876 5876 5877 5879 5882 5884 5886 5889 5891
5873 5873 5873 5873 5872 5871 5870 5870 5869 5869 5869 5868 5867 5867 5866 5865 5865 5865 5866 5866 5866 5866 5866 5866 5866 5866 5867 5867 5868 5869 5870 5870 5870 5871 5871 5872 5873 5874 5876 5879 5881 5884 5886
5870 5871 5870 5870 5870 5869 5868 5867 5866 5866 5865 5865 5864 5863 5862 5861 5861 5861 5862 5862 5862 5862 5862 5862 5861 5862 5862 5862 5863 5864 5864 5865 5865 5866 5866 5867 5868 5870 5871 5873 5875 5877 5880
5867 5867 5867 5867 5867 5866 5865 5864 5864 5863 5863 5862 5861 5860 5859 5859 5858 5858 5858 5858 5857 5857 5857 5856 5856 5856 5856 5856 5856 5857 5858 5859 5860 5860 5861 5861 5862 5864 5866 5867 5869 5871 5874
5864 5864 5865 5865 5865 5863 5863 5862 5861 5861 5860 5859 5858 5857 5856 5855 5854 5853 5853 5853 5852 5852 5851 5851 5850 5850 5850 5850 5850 5851 5851 5852 5853 5854 5854 5855 5856 5858 5859 5861 5863 5865 5868
5862 5862 5863 5863 5862 5861 5861 5860 5859 5859 5858 5856 5855 5854 5853 5851 5850 5849 5848 5848 5847 5846 5846 5845 5844 5843 5843 5844 5844 5844 5845 5845 5846 5847 5848 5849 5850 5851 5853 5854 5856 5858 5861
5860 5860 5861 5861 5860 5860 5859 5858 5857 5856 5855 5853 5852 5850 5849 5847 5846 5844 5843 5842 5841 5840 5839 5838 5837 5837 5836 5836 5837 5837 5838 5839 5838 5839 5841 5841 5843 5844 5846 5847 5849 5851 5854
5859 5859 5859 5859 5859 5858 5857 5856 5854 5853 5851 5850 5849 5847 5845 5843 5841 5840 5839 5837 5835 5834 5833 5832 5831 5830 5829 5829 5828 5829 5830 5830 5831 5832 5832 5833 5835 5836 5838 5840 5842 5844 5847
5859 5859 5858 5858 5857 5856 5855 5853 5852 5850 5849 5847 5845 5843 5841 5839 5837 5835 5833 5832 5830 5828 5827 5825 5824 5823 5822 5821 5820 5820 5821 5822 5822 5823 5824 5825 5826 5828 5829 5832 5834 5836 5839
5858 5858 5857 5856 5856 5854 5853 5851 5849 5847 5845 5843 5841 5839 5837 5835 5832 5831 5829 5826 5824 5822 5820 5818 5817 5815 5814 5813 5813 5812 5812 5813 5813 5814 5815 5816 5817 5819 5821 5823 5825 5828 5831
5857 5857 5856 5855 5854 5852 5850 5848 5846 5844 5842 5839 5837 5835 5832 5830 5828 5826 5824 5821 5818 5816 5814 5812 5810 5808 5807 5805 5804 5804 5804 5804 5804 5805 5806 5807 5808 5810 5812 5814 5816 5819 5822